Zurück zum Katalog

STARLINK-36773

AktivKommunikationSSO
NORAD 67801·PAYLOAD·🇺🇸 United States

Gestartet Feb 15, 2026 von Vandenberg Space Force Base

Loading…

Nächste Überflüge (nächste 24 Stunden)

TLE

AktuellSource: CelesTrak SupGP

Epoche: Sep 15, 2026, 02:44 UTC

1 67801C 26032E   26258.11437500 -.00052293  00000+0 -16228-2 0  2580
2 67801  97.2853  84.5283 0001936  93.3981 331.0873 15.33473782    19

Verfolge STARLINK-36773 in Echtzeit mit AllMySat

Download on the App Store